Das Wetter in  D-61279 Heinzenberg / Taunus





Wetter Minimum- & Maximum-Werte im September 2010

Standort: Heinzenberg / Taunus - Höhe 297 m         8° 24' 1" Ost 50° 21' 51" Nord
(   3-stündige Aktualisierung    letzte Aktualisierung um 20:46 am 30.09.2010  )


Messgrösse

Minimum

Maximum

Durchschnitt

Temperatur West /
Luftfeuchte West
Anklicken für Monats-Diagramm

2,5 °C

05:53
19.09.2010

37 %

14:03
06.09.2010

24,0 °C

17:12
11.09.2010

99 %

07:52
10.09.2010

Temp

12,3 °C

Feuchte

84 %

Temperatur Ost /
Luftfeuchte Ost
Anklicken für Monats-Diagramm

2,5 °C

07:28
19.09.2010

--

--
--

24,4 °C

14:05
22.09.2010

--

--
--

12,1 °C

--

Luftdruck Anklicken für Monats-Diagramm

999,6 hPa

15:22
24.09.2010

1026,9 hPa

10:03
13.09.2010

1016,3 hPa

Taupunkt

1,8 °C

05:53
19.09.2010

15,6 °C

15:53
12.09.2010

9,5 °C

Windchill
( gefühlte Temperatur )

1,2 °C

02:26
28.09.2010

23,8 °C

17:32
11.09.2010

10,9 °C

Windgeschwindigkeit /
Windrichtung
Anklicken für Monats-Diagramm

---

43,6 km/h / W-SW

16:44
15.09.2010

6,8 km/h
W-SW

Helligkeit /
Sonnenschein
Anklicken für Monats-Diagramm
Anklicken für Monats-Diagramm

Sonnenschein:

119:08 Stunden

Max: 10:55 Std am
11.09.2010

109 klux

13:17
10.09.2010

25 klux

Solarstrahlung Anklicken für Monats-Diagramm

---

746 W/m²

13:17
10.09.2010

182 W/m²

Regenmenge
    September 2010
Anklicken für Monats-Diagramm

Insgesamt 62,2 l/m²

in 67:01 Stunden
an 18 Tagen

10,9 l/m²

20:18
12.09.2010

Gesamtmenge

62,2 l/m²

Regen-Tage
    September 2010
Anklicken für Monats-Diagramm

>   0 mm/Tag

>   2 mm/Tag

>   5 mm/Tag

> 10 mm/Tag

> 20 mm/Tag

18 Tage     
10 Tage     
5 Tage     
2 Tage     
0 Tage     

Eisige Tage September 2010 / 2009

Tmin ≤ -10°C     

0 Tage

/

0 Tage

Eistage September 2010 / 2009

Tmax <     0°C     

0 Tage

/

0 Tage

Frosttage September 2010 / 2009

Tmin ≤     0°C     

0 Tage

/

0 Tage

Kalte Tage September 2010 / 2009

Tmax <   10°C     

0 Tage

/

0 Tage

Warme Tage September 2010 / 2009

Tmax ≥   20°C     

8 Tage

/

17 Tage

Sommertage September 2010 / 2009

Tmax ≥   25°C     

0 Tage

/

2 Tage

Heisse Tage September 2010 / 2009

Tmax ≥   30°C     

0 Tage

/

0 Tage


Monatsdiagramm September 2010

Die Kurven zeigen den Durchschnittswert des jeweiligen Tages an


Wetter-Monatsübersicht September 2010
Datum
  Temperatur
   Luftdruck
   Wind
  Regen
   Luftfeuchte
   Helligkeit

Sonnen-
schein

Ø
Temp.

Min.
Temp.

Max.
Temp.

Ø
Luftdruck

Min.
Luftdruck

Max.
Luftdruck

Ø-Geschw.
Haupt-Richtg.

Max.
Wind

Menge /
Dauer

Ø
Feuchte

Min.
Feuchte

Max.
Feuchte

Ø
Helligkeit

Max.
Helligkeit

1.
September
12,3 °C7,4 °C
06:29
16,8 °C
19:29
1020,9 hPa1019,1 hPa
19:29
1023,2 hPa
00:04
1,8 km/h
W-NW
13,5 km/h
12:19  
---
15 Minuten
85 %67 %
16:19
96 %
06:39
22,4 klux47,5 klux
15:09
25 Min 
2.
September
12,6 °C7,2 °C
06:35
17,4 °C
13:05
1019,8 hPa1019,1 hPa
13:05
1020,8 hPa
00:40
1,7 km/h
NW
11,6 km/h
12:55  
---
85 %63 %
13:10
98 %
04:55
24,3 klux84,3 klux
13:00
2:20 Std 
3.
September
13,3 °C7,0 °C
06:11
20,5 °C
18:16
1020,5 hPa1018,7 hPa
18:16
1022,4 hPa
08:01
1,8 km/h
N
13,0 km/h
13:11  
---
82 %55 %
16:16
98 %
08:26
33,9 klux98,1 klux
12:46
5:00 Std 
4.
September
14,0 °C9,1 °C
23:58
19,6 °C
18:02
1020,1 hPa1018,8 hPa
03:27
1023,2 hPa
23:58
3,0 km/h
NO
15,6 km/h
19:12  
---
78 %54 %
15:42
96 %
07:32
33,2 klux95,2 klux
13:57
5:40 Std 
5.
September
12,1 °C4,3 °C
07:03
20,8 °C
17:08
1022,0 hPa1019,7 hPa
17:08
1023,8 hPa
07:03
4,4 km/h
SO
25,3 km/h
14:48  
---
73 %42 %
17:58
96 %
08:23
41,7 klux92,0 klux
13:18
9:55 Std 
6.
September
12,9 °C4,7 °C
06:43
21,0 °C
17:58
1018,1 hPa1013,2 hPa
20:58
1022,5 hPa
04:23
10,7 km/h
SO
37,8 km/h
13:38  
---
66 %37 %
14:03
96 %
08:38
42,5 klux79,3 klux
13:03
10:05 Std 
7.
September
11,4 °C9,8 °C
12:24
12,8 °C
00:04
1008,7 hPa1006,2 hPa
23:50
1013,4 hPa
00:04
8,5 km/h
O-SO
23,1 km/h
16:54  
10,6 l/m²
5:21 Stunden
81 %60 %
00:04
96 %
22:25
6,8 klux21,6 klux
16:34
--- 
8.
September
13,0 °C11,9 °C
03:10
14,5 °C
18:45
1005,7 hPa1004,1 hPa
06:55
1008,2 hPa
23:56
11,2 km/h
O-SO
30,7 km/h
16:55  
4,6 l/m²
4:55 Stunden
95 %92 %
11:15
97 %
03:15
7,5 klux21,4 klux
16:40
10 Min 
9.
September
13,7 °C12,5 °C
04:46
15,7 °C
15:26
1013,6 hPa1008,2 hPa
00:01
1019,6 hPa
23:42
10,9 km/h
W-SW
24,5 km/h
09:31  
2,1 l/m²
3:40 Stunden
93 %81 %
15:36
97 %
11:01
11,1 klux29,7 klux
13:56
--- 
10.
September
14,4 °C10,5 °C
07:42
19,4 °C
17:02
1021,7 hPa1019,6 hPa
00:02
1022,9 hPa
08:42
5,2 km/h
W-SW
20,5 km/h
17:02  
0,6 l/m²
1:00 Stunden
89 %68 %
17:02
99 %
07:52
28,0 klux109,0 klux
13:17
3:00 Std 
11.
September
16,6 °C12,0 °C
08:02
24,0 °C
17:12
1020,7 hPa1018,3 hPa
17:12
1022,7 hPa
02:02
4,3 km/h
W-SW
19,8 km/h
16:22  
---
81 %55 %
17:08
98 %
05:32
42 klux91 klux
12:32
10:55 Std 
12.
September
14,8 °C9,6 °C
07:18
22,6 °C
14:48
1019,7 hPa1017,4 hPa
14:48
1022,8 hPa
23:48
4,7 km/h
W-NW
26,6 km/h
16:48  
10,9 l/m²
4:00 Stunden
86 %51 %
14:38
97 %
08:18
31,9 klux86,8 klux
14:03
4:35 Std 
13.
September
13,6 °C10,8 °C
07:13
18,7 °C
16:53
1025,3 hPa1021,7 hPa
01:13
1026,9 hPa
10:03
7,2 km/h
W-NW
26,1 km/h
14:28  
0,3 l/m²
35 Minuten
84 %60 %
17:03
98 %
00:33
31,9 klux89,8 klux
13:48
5:20 Std 
14.
September
14,6 °C10,5 °C
01:19
18,5 °C
15:59
1020,5 hPa1015,1 hPa
23:19
1026,1 hPa
01:19
16,3 km/h
W-SW
36,0 km/h
15:59  
1,1 l/m²
2:30 Stunden
82 %66 %
18:44
93 %
05:34
16,4 klux59,7 klux
15:49
15 Min 
15.
September
14,4 °C11,2 °C
07:54
18,2 °C
16:49
1011,4 hPa1008,7 hPa
18:09
1015,1 hPa
00:04
22,1 km/h
W-SW
43,6 km/h
16:44  
2,1 l/m²
4:45 Stunden
76 %55 %
16:49
97 %
07:04
30,5 klux93,7 klux
12:04
4:28 Std 
16.
September
12,4 °C10,3 °C
07:05
16,7 °C
14:15
1010,7 hPa1009,3 hPa
00:35
1012,7 hPa
10:05
18,1 km/h
W
37,8 km/h
03:55  
7,4 l/m²
8:45 Stunden
84 %62 %
00:00
97 %
10:10
28,1 klux95,7 klux
12:35
3:55 Std 
17.
September
11,3 °C8,2 °C
22:57
16,2 °C
18:01
1013,6 hPa1010,6 hPa
04:21
1018,1 hPa
22:57
12,4 km/h
W
31,1 km/h
13:06  
1,2 l/m²
1:10 Stunden
84 %58 %
17:56
97 %
03:46
27,6 klux84,6 klux
13:16
4:25 Std 
18.
September
9,2 °C4,7 °C
06:02
15,0 °C
17:07
1018,9 hPa1017,1 hPa
01:07
1020,6 hPa
23:53
4,0 km/h
W-NW
19,6 km/h
15:22  
---
83 %53 %
17:22
97 %
06:27
26,2 klux87,2 klux
15:02
4:55 Std 
19.
September
9,2 °C2,5 °C
05:53
17,3 °C
17:48
1019,3 hPa1017,0 hPa
17:48
1020,9 hPa
07:28
6,3 km/h
W
28,5 km/h
12:38  
---
78 %50 %
16:38
97 %
08:53
34,4 klux86,3 klux
12:38
7:30 Std 
20.
September
12,1 °C6,6 °C
06:49
19,8 °C
16:44
1017,9 hPa1015,7 hPa
16:44
1019,4 hPa
06:49
5,7 km/h
W-SW
27,5 km/h
15:24  
---
79 %54 %
14:54
94 %
07:49
28,1 klux80,9 klux
11:54
5:30 Std 
21.
September
12,8 °C5,8 °C
07:50
22,6 °C
17:55
1021,1 hPa1019,0 hPa
00:00
1023,1 hPa
23:55
2,3 km/h
SO
13,3 km/h
15:00  
---
80 %52 %
18:10
97 %
08:55
39,2 klux73,8 klux
13:30
10:00 Std 
22.
September
13,7 °C5,8 °C
07:20
23,5 °C
13:26
1021,3 hPa1018,6 hPa
19:10
1023,6 hPa
07:30
2,5 km/h
SO
22,0 km/h
14:25  
---
79 %49 %
14:15
97 %
09:00
32,0 klux66,5 klux
13:00
7:25 Std 
23.
September
14,9 °C7,2 °C
07:46
22,8 °C
16:56
1013,6 hPa1007,7 hPa
23:57
1019,0 hPa
02:51
5,8 km/h
SO
27,2 km/h
13:46  
---
5 Minuten
80 %57 %
15:41
97 %
09:01
36,6 klux68,5 klux
13:51
8:55 Std 
24.
September
14,1 °C11,6 °C
22:48
17,7 °C
00:02
1003,3 hPa999,6 hPa
15:22
1007,7 hPa
00:17
5,4 km/h
W-SW
33,2 km/h
16:47  
5,0 l/m²
6:24 Stunden
93 %80 %
00:02
98 %
23:28
7,8 klux26,8 klux
15:17
--- 
25.
September
10,8 °C7,4 °C
23:59
11,8 °C
00:03
1005,4 hPa1003,2 hPa
00:03
1008,9 hPa
23:59
4,3 km/h
NW
19,7 km/h
11:03  
1,7 l/m²
3:30 Stunden
91 %74 %
15:58
99 %
03:48
9,4 klux31,4 klux
15:33
--- 
26.
September
9,2 °C5,7 °C
05:29
14,2 °C
13:14
1009,0 hPa1008,0 hPa
01:49
1011,0 hPa
23:50
5,6 km/h
W-SW
22,8 km/h
10:24  
---
86 %62 %
13:14
97 %
06:04
24,1 klux83,5 klux
13:29
2:45 Std 
27.
September
8,1 °C5,4 °C
02:45
11,0 °C
14:55
1011,8 hPa1011,0 hPa
00:00
1012,9 hPa
23:26
6,3 km/h
W
21,5 km/h
15:15  
4,3 l/m²
6:41 Stunden
92 %78 %
15:05
98 %
08:35
12,8 klux34,0 klux
10:20
10 Min 
28.
September
9,8 °C8,5 °C
03:51
11,4 °C
15:51
1015,7 hPa1012,9 hPa
00:01
1018,9 hPa
20:16
6,9 km/h
W
21,6 km/h
02:26  
5,9 l/m²
9:30 Stunden
99 %98 %
00:01
99 %
00:11
5,4 klux15,4 klux
15:46
--- 
29.
September
9,4 °C6,2 °C
22:32
14,7 °C
17:31
1019,8 hPa1018,4 hPa
17:31
1021,1 hPa
10:36
1,1 km/h
SO
10,4 km/h
12:46  
3,5 l/m²
2:05 Stunden
93 %70 %
17:31
99 %
00:01
16,3 klux44,6 klux
16:36
1:30 Std 
30.
September
9,2 °C5,3 °C
03:12
12,5 °C
14:28
1017,4 hPa1014,7 hPa
23:19
1020,5 hPa
00:27
2,1 km/h
O-SO
17,1 km/h
10:18  
0,8 l/m²
1:50 Stunden
96 %88 %
14:48
99 %
03:37
10,6 klux32,9 klux
12:23
--- 



September
2010

Temperatur

  

Luftdruck

  

Wind

  

Regen

  

Luftfeuchte

  

Helligkeit

Sonnen-
schein

Ø

Min

Max

Ø

Min

Max

Ø

Max

Max

Ø

Min

Max

Ø

Max

Max

12,3 °C

2,5 °C

05:53 Uhr
19.09.2010

24,0 °C

17:12 Uhr
11.09.2010

1016,3 hPa

999,6 hPa

15:22 Uhr
24.09.2010

1026,9 hPa

10:03 Uhr
13.09.2010

6,8 km/h

W-SW

43,6 km/h

16:44 Uhr
15.09.2010

10,9 l/m²

4:00 Stunden
12.09.2010

84 %

37 %

14:03 Uhr
06.09.2010

99 %

07:52 Uhr
10.09.2010

24,8 klux

109,0 klux

13:17 Uhr
10.09.2010

10:55 Std

am
11.09.2010

Gesamt

Gesamt

62,2 l/m²

18 Tage
67:01 h

119:08 Std


Wetter-Diagramme September 2010     Heinzenberg / Taunus   
TemperaturLuftfeuchte
SolarstrahlungLuftdruck
HelligkeitSonnenschein
RegenmengeRegendauer
Wind-GeschwindigkeitWind-Richtung